Regional Weather Roundup
Issued by NWS Albany, NY

Home | Current Version | Previous Version | Text Only | Print | Product List | Glossary On
Versions: 1 2 3 4 5 6 7 8 9 10 11 12 13 14 15 16 17 18 19 20 21 22 23 24 25 26 27 28 29
000
ASUS41 KALY 251810
RWRALY

NEW YORK STATE HOURLY WEATHER ROUNDUP
NATIONAL WEATHER SERVICE ALBANY NY
200 PM EDT SAT OCT 25 2014

NOTE: "FAIR" INDICATES FEW OR NO CLOUDS BELOW 12,000 FEET WITH NO
SIGNIFICANT WEATHER AND/OR NO OBSTRUCTIONS TO VISIBILITY.

NYZ032-033-038>043-046>054-057>066-NYZ062>081-251900-
EAST


CITY           SKY/WX    TMP DP  RH WIND       PRES   REMARKS
ALBANY         PTSUNNY   60  45  57 VRB5      29.68F
GLENS FALLS    SUNNY     59  47  64 S9        29.63F
POUGHKEEPSIE   MOSUNNY   65  43  44 SW15      29.71F
NEWBURGH       MOSUNNY   61  45  55 NW12G23   29.74F
MONTGOMERY     PTSUNNY   64  42  44 W8        29.71F
WHITE PLAINS   MOSUNNY   64  42  44 NW13      29.71F
ISLIP          MOSUNNY   65  44  46 W10       29.71F
NEW YORK CITY  PTSUNNY   64  40  41 SW8       29.72F
CENTRAL PARK   SUNNY     65  41  41 VRB5      29.75F
$$

NYZ005>009-017-018-044>046-055-056-251900-
CENTRAL


CITY           SKY/WX    TMP DP  RH WIND       PRES   REMARKS
FULTON         CLOUDY    64  47  53 SW12      29.62F
SYRACUSE       PTSUNNY   65  47  52 SW16      29.64F
ROME           MOSUNNY   61  46  57 W12G17    29.65F
ELMIRA         MOSUNNY   67  44  43 W20       29.67F
BINGHAMTON     SUNNY     60  44  55 SW14G22   29.70F
MONTICELLO     MOSUNNY   57  43  58 SW13G18   29.74F
$$

NYZ026>034-041>043-251900-
NORTH


CITY           SKY/WX    TMP DP  RH WIND       PRES   REMARKS
WATERTOWN      CLOUDY    60  46  59 SW13G23   29.60F
FORT DRUM      NOT AVBL
MASSENA        CLOUDY    58  47  66 SW18      29.58F
SARANAC LAKE   CLOUDY    52  44  74 SW9       29.59F
PLATTSBURGH    MOSUNNY   56  44  64 SE14      29.59F
$$

NYZ001>004-010>016-019>021-251900-
WEST


CITY           SKY/WX    TMP DP  RH WIND       PRES   REMARKS
NIAGARA FALLS  PTSUNNY   60  51  72 SW21G38   29.63F
BUFFALO        PTSUNNY   60  50  69 SW31G46   29.64F
DUNKIRK        LGT RAIN  63  49  60 W21G40    29.68F
JAMESTOWN      CLOUDY    61  46  59 SW17G25   29.73F
WELLSVILLE     MOSUNNY   63  41  44 W13G23    29.71F
ROCHESTER      CLOUDY    65  45  48 SW18G28   29.61F
PENN YAN       PTSUNNY   65  44  46 SW13G22   29.65F
$$

             KEY
       WCI = WIND CHILL INDEX
       VSB = VISIBILITY
       HX  = HEAT INDEX
$$



USA.gov is the U.S. government's official web portal to all federal, state and local government web resources and services.